Wetbulb
41.41 39.68 37.77 36.67 36.86 36.44 35.84 35.29 35.75 35.54 35.61 35.27 35.18 34.87 35.02 34.99 34.71 34.06 33.94 32.37 32.69 33.14
38.78 37.49 36.35 36.38 36.37 35.77 35.36 35.02 35.02 35.29 34.81 34.69 34.38 34.12 34.03 33.98 33.33 33.32 33.24 32.99 32.72 32.09
35.96 36.56 35.98 35.85 34.96 34.99 34.89 34.79 34.60 34.38 34.33 33.94 33.65 33.29 32.95 32.73 32.74 32.59 33.15 33.37 32.26 32.25
35.22 34.87 34.80 34.48 34.36 34.27 34.41 34.36 33.99 33.77 33.37 33.06 32.58 32.29 32.08 31.77 32.08 31.47 31.83 32.42 31.75 31.27
34.06 33.82 33.54 33.38 33.53 34.15 33.43 33.72 33.33 32.90 32.36 32.03 31.70 31.45 31.03 30.89 31.41 31.12 30.99 31.23 30.88 30.64
33.02 32.93 32.72 32.78 33.05 33.20 32.91 32.55 32.29 32.07 31.41 30.94 30.68 30.63 30.90 31.27 31.69 31.68 31.44 30.92 30.31 30.19
32.33 32.27 32.49 32.50 32.51 32.44 32.30 31.79 31.35 31.00 30.32 30.01 29.98 30.21 31.09 32.19 32.54 32.07 31.83 31.01 30.98 30.42
31.68 31.98 31.98 31.73 31.55 31.51 31.60 30.94 30.64 30.07 29.55 29.31 30.11 31.03 33.14 33.72 33.03 31.85 31.24 31.08 30.77 31.00
31.45 31.43 31.01 30.87 30.70 30.75 30.23 29.91 29.74 28.88 28.27 28.44 29.49 32.12 34.71 34.78 33.15 31.88 30.65 29.82 30.44 30.62
31.12 30.61 30.59 30.59 30.32 29.72 29.09 29.08 28.32 28.07 27.92 27.46 27.70 32.21 34.28 34.41 32.87 31.04 30.56 30.03 29.84 29.46
30.85 29.99 30.26 30.17 29.29 28.74 28.53 28.03 27.86 27.46 27.08 26.74 27.63 32.02 33.18 33.56 31.95 30.84 30.58 30.27 29.77 29.13
30.36 29.81 29.77 28.39 28.09 27.85 27.81 27.40 26.89 27.06 26.39 26.28 27.56 30.83 32.19 32.35 30.86 30.03 29.86 30.03 30.14 29.95
30.65 29.89 28.04 27.82 27.36 26.82 26.90 27.19 27.19 26.60 26.96 26.98 26.61 29.33 31.74 31.97 30.44 29.12 29.31 30.33 30.12 31.19
29.31 27.93 27.46 26.95 26.63 25.87 25.86 25.81 25.26 26.02 26.46 26.55 27.38 28.36 31.13 31.93 30.50 29.47 29.46 28.59 28.85 29.60
MSLP
1013.62 1014.61 1015.80 1016.66 1017.55 1018.24 1018.86 1019.42 1019.88 1020.11 1020.26 1020.71 1020.97 1021.04 1021.21 1021.20 1021.30 1021.44 1021.47 1021.54 1021.54 1021.48
1014.12 1014.85 1016.06 1017.10 1017.87 1018.53 1019.07 1019.53 1019.96 1020.22 1020.48 1020.90 1021.00 1021.15 1021.21 1021.27 1021.37 1021.44 1021.47 1021.42 1021.39 1021.40
1014.59 1015.48 1016.58 1017.37 1018.13 1018.64 1019.09 1019.58 1019.97 1020.35 1020.78 1020.92 1021.07 1021.13 1021.18 1021.23 1021.31 1021.35 1021.36 1021.27 1021.24 1021.11
1015.14 1016.12 1016.94 1017.65 1018.35 1018.80 1019.23 1019.65 1020.12 1020.57 1020.84 1020.98 1021.11 1021.15 1021.17 1021.23 1021.24 1021.24 1021.21 1021.10 1021.01 1020.88
1015.50 1016.35 1017.28 1018.07 1018.55 1018.99 1019.40 1019.95 1020.35 1020.74 1020.97 1021.12 1021.10 1021.15 1021.12 1021.10 1021.11 1021.05 1020.87 1020.78 1020.72 1020.55
1015.91 1016.76 1017.73 1018.32 1018.75 1019.19 1019.73 1020.21 1020.66 1020.89 1021.07 1021.04 1021.10 1021.12 1021.06 1020.98 1020.81 1020.69 1020.62 1020.59 1020.52 1020.23
1016.33 1017.22 1018.00 1018.57 1018.97 1019.52 1020.00 1020.41 1020.82 1021.08 1021.12 1021.12 1021.07 1020.99 1020.88 1020.67 1020.47 1020.38 1020.34 1020.31 1020.09 1019.75
1016.87 1017.68 1018.39 1018.91 1019.36 1019.83 1020.23 1020.67 1020.99 1021.09 1021.12 1021.09 1020.99 1020.83 1020.59 1020.32 1020.10 1020.08 1019.99 1019.84 1019.52 1019.11
1017.22 1018.04 1018.75 1019.17 1019.60 1020.07 1020.56 1020.86 1020.97 1021.07 1021.13 1021.08 1020.93 1020.77 1020.33 1020.00 1019.84 1019.80 1019.63 1019.22 1018.81 1018.46
1017.62 1018.35 1018.90 1019.36 1019.84 1020.36 1020.75 1020.91 1021.07 1021.12 1021.11 1021.06 1020.86 1020.45 1020.10 1019.83 1019.55 1019.40 1019.07 1018.64 1018.17 1017.78
1017.85 1018.48 1019.13 1019.64 1020.17 1020.60 1020.82 1020.96 1021.09 1021.13 1021.07 1020.90 1020.70 1020.38 1019.91 1019.54 1019.18 1018.87 1018.54 1018.14 1017.69 1017.17
1018.10 1018.75 1019.38 1019.94 1020.37 1020.64 1020.81 1020.98 1021.07 1021.01 1021.00 1020.87 1020.53 1020.15 1019.68 1019.20 1018.79 1018.39 1017.98 1017.56 1017.04 1016.60
1018.42 1018.99 1019.57 1020.01 1020.43 1020.83 1020.94 1020.94 1020.97 1020.92 1020.82 1020.66 1020.37 1019.98 1019.46 1018.94 1018.39 1017.86 1017.26 1016.87 1016.42 1016.04
1018.82 1019.34 1019.90 1020.34 1020.67 1020.92 1021.02 1021.04 1020.92 1020.76 1020.64 1020.36 1020.10 1019.68 1019.14 1018.61 1017.98 1017.48 1016.81 1016.33 1015.74 1015.39
Wind_Speed
15 10 9 10 9 8 8 7 8 8 8 7 6 5 4 3 3 3 1 2 3 3
13 14 12 13 11 9 10 8 9 8 8 6 6 5 4 3 3 2 2 3 4 4
14 14 14 12 12 11 10 10 9 8 6 6 5 4 4 3 2 2 3 3 5 5
14 14 13 12 11 10 10 9 8 7 6 5 4 4 3 3 1 4 5 5 5 7
15 14 13 12 11 10 10 8 7 6 5 4 4 3 3 3 4 5 5 6 6 8
14 13 12 12 11 10 9 8 6 5 5 4 3 2 3 4 5 5 5 5 6 10
13 13 12 11 10 9 8 7 6 4 4 3 3 3 4 5 5 5 5 6 8 10
12 12 11 10 9 8 7 6 5 4 3 3 3 3 7 6 5 6 6 8 10 10
12 11 10 9 9 8 6 5 4 4 3 4 4 10 11 11 7 7 8 11 11 11
11 11 9 9 8 7 5 4 4 3 4 5 5 10 12 13 8 7 10 12 12 11
11 11 9 8 7 5 3 4 3 3 4 5 5 11 14 15 9 9 11 12 13 12
10 10 8 7 6 4 3 3 3 3 4 5 6 12 15 14 9 10 12 12 12 12
9 9 8 7 5 3 2 3 3 4 4 6 6 11 15 14 8 10 10 11 12 15
8 8 7 5 3 3 3 3 4 5 5 5 6 9 15 16 10 9 9 10 10 10
Wind_Direction
128 127 122 127 135 128 127 124 126 115 107 107 102 91 85 74 61 39 27 326 278 270
122 121 127 126 124 127 124 125 119 113 109 106 92 82 74 59 41 26 10 318 298 280
119 120 124 126 127 127 120 120 115 109 110 101 87 72 55 37 34 357 337 314 308 301
121 122 121 121 125 122 119 115 111 111 104 94 81 55 40 20 348 331 322 318 309 305
119 118 119 123 122 120 113 109 110 108 100 92 69 36 14 347 328 317 321 323 318 310
119 121 124 123 120 115 116 112 107 101 93 74 47 12 333 304 308 315 318 311 303 307
122 125 125 123 118 116 115 113 104 92 84 59 3 331 317 309 309 310 302 291 298 301
120 120 121 118 115 111 105 103 105 96 61 20 341 340 330 317 316 303 297 301 302 301
120 122 122 118 113 107 106 106 91 65 34 2 347 329 330 331 319 314 307 308 305 298
125 124 120 116 111 110 106 100 70 31 8 354 333 328 331 329 324 314 308 305 304 301
124 119 116 112 112 118 102 75 43 10 352 341 327 333 333 328 320 309 306 300 297 295
123 122 121 114 117 105 91 67 24 349 346 333 328 332 330 328 320 311 303 298 295 299
120 120 121 126 112 90 72 27 359 349 349 330 321 325 330 327 317 314 314 311 310 308
115 115 113 109 94 86 56 20 4 347 330 319 321 322 328 327 322 316 311 315 315 313